Regional Weather Roundup
Issued by NWS Sterling, VA

Home | Current Version | Previous Version | Graphics & Text | Print | Product List | Glossary On
Versions: 1 2 3 4 5 6 7 8 9 10 11 12 13 14 15 16 17 18 19 20 21 22 23 24 25 26 27 28 29 30 31 32 33 34 35 36 37 38 39 40 41 42 43 44 45 46 47 48 49 50
000
ASUS41 KLWX 292310
RWRLWX

REGIONAL WEATHER ROUNDUP
NATIONAL WEATHER SERVICE BALTIMORE MD/WASHINGTON DC
700 PM EDT MON SEP 29 2014

Note: "FAIR" indicates few or no clouds below 12,000 feet
with no significant weather and/or obstructions to visibility.
 TC=TEMPERATURE CELSIUS

 * =Non NWS site. Station does not report precipitation (e.g. rain,
    snow, etc.), thunder, or fog.

DCZ001-MDZ009-015-VAZ040>042-051-053>054-300000-
WASHINGTON METRO

CITY           SKY/WX    TMP DP  RH WIND       PRES   REMARKS
WASHINGTON NAT CLOUDY    71  63  75 S6        29.94S
DULLES         CLOUDY    67  62  84 SW3       29.94F
ANDREWS AFB    CLOUDY    67  64  91 S5        29.94F
QUANTICO       CLOUDY    69  63  81 SW5       29.96R
COLLEGE PARK*  CLOUDY    70  64  83 CALM      29.93F
LEESBURG*      CLOUDY    70  68  94 S3        29.95S
GAITHERSBURG*  CLOUDY    66  63  88 CALM      29.98S

$$

MDZ006>007-011-014-300000-
BALTIMORE METRO

CITY           SKY/WX    TMP DP  RH WIND       PRES   REMARKS
BWI AIRPORT    CLOUDY    68  63  84 CALM      29.93F
MD SCIENCE CTR   N/A     71  63  75 MISG      29.94S
MARTIN STATE   MOCLDY    70  68  94 CALM      29.96R
ANNAPOLIS        N/A     69  65  86 MISG      29.93F
FORT MEADE*    CLOUDY    66  63  88 CALM      29.95F

$$

MDZ012-015-019>023-300000-
MARYLAND EASTERN SHORE

CITY           SKY/WX    TMP DP  RH WIND       PRES   REMARKS
OCEAN CITY     CLOUDY    71  64  78 S3        29.94S
SALISBURY      CLOUDY    71  63  75 NW6       29.94F
BAY BRIDGE AP*   N/A     68  64  88 SW5       29.95S
CAMBRIDGE*     CLOUDY    70  64  83 CALM      29.95R
EASTON*        LGT RAIN  68  68 100 CALM      29.98S

$$

MDZ017>025-300000-
SOUTHERN MARYLAND

CITY           SKY/WX    TMP DP  RH WIND       PRES   REMARKS
PATUXENT RIVER CLOUDY    67  63  87 CALM      29.95R
ST INIGOES     CLOUDY    67  61  81 CALM      29.94S
LEONARDTOWN*   CLOUDY    64  63  94 SW3       29.97S

$$

MDZ003>005-300000-
NORTH CENTRAL MARYLAND

CITY           SKY/WX    TMP DP  RH WIND       PRES   REMARKS
FREDERICK*     NOT AVBL
HAGERSTOWN APT CLOUDY    72  60  66 SE3       29.93S
WESTMINSTER*   CLOUDY    70  63  78 CALM      29.95S

$$

MDZ501>502-300000-
WESTERN MARYLAND

CITY           SKY/WX    TMP DP  RH WIND       PRES   REMARKS
OAKLAND*       MOCLDY    63  50  63 CALM      30.01S
CUMBERLAND*    NOT AVBL

$$

VAZ025>031-300000-
SHENANDOAH VALLEY

CITY           SKY/WX    TMP DP  RH WIND       PRES   REMARKS
WINCHESTER*    CLOUDY    70  61  73 SE3       29.94S
STAUNTON*      CLOUDY    72  57  60 S3        29.97S

$$

WVZ021-048>050-054>055-300000-
EASTERN WEST VIRGINIA PANHANDLE

CITY           SKY/WX    TMP DP  RH WIND       PRES   REMARKS
MARTINSBURG    CLOUDY    71  60  68 E3        29.93F
PETERSBURG*    CLOUDY    67  58  72 CALM      29.95R

$$

VAZ036>039-050-300000-
CENTRAL FOOTHILLS

CITY           SKY/WX    TMP DP  RH WIND       PRES   REMARKS
CHARLOTTESVILL CLOUDY    69  65  86 S6        29.95F
ORANGE*        CLOUDY    66  63  88 CALM      29.96F

$$

VAZ055>057-300000-
NORTH AND CENTRAL PIEDMONT

CITY           SKY/WX    TMP DP  RH WIND       PRES   REMARKS
FREDERICKSBRG* CLOUDY    69  64  84 CALM      29.95R
STAFFORD*      CLOUDY    66  66 100 CALM      30.00R

$$

NCZ024-NYZ072-PAZ021-071-VAZ022-071-300000-
OTHER REGIONAL OBSERVATIONS

CITY           SKY/WX    TMP DP  RH WIND       PRES   REMARKS
NEW YORK CITY  CLOUDY    74  59  59 CALM      29.94S
PHILADELPHIA   LGT RAIN  70  65  84 W10       29.94S
PITTSBURGH     MOCLDY    75  56  51 S5        29.92S
ROANOKE        PTCLDY    71  61  70 SE7       29.98S
RICHMOND       LGT RAIN  68  65  90 CALM      29.96S
RALEIGH        LGT RAIN  67  63  87 CALM      29.97S

$$

ANZ530>537-300000-
MARINE OBSERVATIONS

STATION/POSITION TIME  TEMP    WIND        PRES
                       AIR SEA DIR/SP/G
                 (UTC) (F)     (DEG/KT/KT) (MB)
THOMAS PT LIGHT  2300   69 71  180/  6/  6 1014.7F
BALT KEY BRIDGE  2300   70     170/  3/  4 1013.6F
COVE POINT       2300   67     300/  2/  3 1014.1R
LEWISETTA        2300   68 71  210/  4/  5 1013.8R
SOLOMONS ISLAND  2300      72                N/A
PINEY POINT      2300          220/  5/  5   N/A

$$



USA.gov is the U.S. government's official web portal to all federal, state and local government web resources and services.